Tracking 28766 objects as of 13-Apr-2024
HD Live streaming from Space Station
objects crossing your sky now

FENGYUN 1C DEB

Track FENGYUN 1C DEB now!
10-day predictions


NORAD ID: 30508
Int'l Code: 1999-025AHW
Perigee: 565.6 km
Apogee: 785.2 km
Inclination: 99.2 °
Period: 98.1 minutes
Semi major axis: 7046 km
RCS: 0.0117 m2 (small)
Launch date: May 10, 1999
Source: People's Republic of China (PRC)
Launch site: Taiyaun Space Center, China (TSC)

Note: This is SATELLITE DEBRIS
Your satellite tracking list
Your tracking list is empty




NASA's NSSDC Master Catalog

Two Line Element Set (TLE):
1 30508U 99025AHW 24103.57309317  .00047205  00000-0  68615-2 0  9992
2 30508  99.1986  64.9745 0155816  93.9273 330.3496 14.67746836891439
Source of the keplerian elements: AFSPC